Retour au catalogue

ATLAS 5 CENTAUR DEB

LostHEO
NORAD 49351·DEBRIS·🇺🇸 United States

Lancé Oct 17, 2018 depuis Cape Canaveral Space Force Station

Loading…

Prochains Passages (prochaines 24 heures)

TLE

PériméSource: Space-Track

Époque: Jul 8, 2026, 03:44 UTC

1 49351U 18079FC  26189.15594430 -.00000110  00000-0  00000-0 0  9997
2 49351  13.2808  57.1463 4522319 262.9189  45.2405  1.72124784 30565

Suivez ATLAS 5 CENTAUR DEB en temps réel avec AllMySat

Download on the App Store